FW7029 Weather Reports


time (UTC)temp
C
wind
direction
speed
KPH
gust
KPH
rain 1hr
cm
rain 24hr
cm
rain mn
cm
humidity
%
barometer
mb
20260906225143 30 21 6.4 11.3 0.00 0.00 0.00 39 1016.3
20260906224638 30 349 11.3 14.5 0.00 0.00 0.00 39 1016.3
20260906224135 30 26 11.3 17.7 0.00 0.00 0.00 39 1016.6
20260906223630 30 15 9.7 14.5 0.00 0.00 0.00 38 1016.4
20260906223125 30 339 8.0 12.9 0.00 0.00 0.00 39 1016.4
20260906222623 30 43 8.0 11.3 0.00 0.00 0.00 39 1016.8
20260906222122 30 314 8.0 11.3 0.00 0.00 0.00 38 1016.6
20260906221620 30 346 3.2 3.2 0.00 0.00 0.00 40 1016.7
20260906221109 29 41 4.8 8.0 0.00 0.00 0.00 39 1016.7
20260906220604 30 4 11.3 14.5 0.00 0.00 0.00 39 1017.0
20260906220100 30 68 1.6 1.6 0.00 0.00 0.00 38 1016.8
20260906215559 30 19 4.8 8.0 0.00 0.00 0.00 39 1017.3
20260906215057 30 331 9.7 11.3 0.00 0.00 0.00 38 1017.2
20260906214555 30 106 1.6 1.6 0.00 0.00 0.00 38 1016.9
20260906214051 30 70 1.6 1.6 0.00 0.00 0.00 39 1017.0
20260906213550 29 267 6.4 8.0 0.00 0.00 0.00 40 1017.4
20260906213044 30 12 6.4 9.7 0.00 0.00 0.00 40 1017.2
20260906212538 30 51 3.2 4.8 0.00 0.00 0.00 39 1017.5
20260906212033 31 125 1.6 3.2 0.00 0.00 0.00 39 1017.6
20260906211527 30 265 3.2 3.2 0.00 0.00 0.00 38 1017.5
20260906211023 30 70 3.2 4.8 0.00 0.00 0.00 40 1017.5
20260906210518 29 74 4.8 8.0 0.00 0.00 0.00 40 1018.0
20260906210017 29 81 4.8 4.8 0.00 0.00 0.00 41 1018.2
20260906205514 29 126 3.2 8.0 0.00 0.00 0.00 40 1018.1
20260906205009 29 132 1.6 8.0 0.00 0.00 0.00 41 1018.2
20260906204508 29 68 3.2 3.2 0.00 0.00 0.00 40 1018.3
20260906204003 29 37 8.0 11.3 0.00 0.00 0.00 39 1018.2
20260906203457 29 47 6.4 9.7 0.00 0.00 0.00 39 1018.3
20260906202955 28 136 3.2 3.2 0.00 0.00 0.00 40 1018.5
20260906202454 28 16 1.6 1.6 0.00 0.00 0.00 38 1018.2
20260906201949 28 149 8.0 9.7 0.00 0.00 0.00 39 1018.3
20260906201438 28 146 8.0 11.3 0.00 0.00 0.00 38 1018.3
20260906200933 28 70 4.8 8.0 0.00 0.00 0.00 39 1018.6
20260906200429 29 38 9.7 14.5 0.00 0.00 0.00 40 1018.5
20260906195929 29 133 1.6 3.2 0.00 0.00 0.00 40 1018.6
20260906195426 29 142 1.6 1.6 0.00 0.00 0.00 40 1018.7
20260906194921 28 106 3.2 3.2 0.00 0.00 0.00 41 1018.5
20260906194417 28 108 8.0 9.7 0.00 0.00 0.00 41 1018.8
20260906193912 28 128 3.2 3.2 0.00 0.00 0.00 40 1018.8
20260906193407 27 73 4.8 8.0 0.00 0.00 0.00 41 1018.6
20260906192903 28 38 8.0 16.1 0.00 0.00 0.00 39 1018.7
20260906192402 27 20 6.4 12.9 0.00 0.00 0.00 43 1018.9
20260906191901 27 85 1.6 1.6 0.00 0.00 0.00 43 1018.9
20260906191356 27 63 4.8 4.8 0.00 0.00 0.00 44 1018.9
20260906190856 27 37 8.0 9.7 0.00 0.00 0.00 44 1019.0
20260906190355 27 107 0.0 0.0 0.00 0.00 0.00 44 1019.2
20260906185850 27 101 4.8 4.8 0.00 0.00 0.00 43 1019.2
20260906185349 27 137 1.6 3.2 0.00 0.00 0.00 42 1019.4
20260906184849 27 60 4.8 8.0 0.00 0.00 0.00 42 1019.6
20260906184344 27 122 1.6 3.2 0.00 0.00 0.00 42 1019.6
20260906183839 26 154 1.6 1.6 0.00 0.00 0.00 41 1019.5
20260906183335 26 65 1.6 1.6 0.00 0.00 0.00 41 1019.9
20260906182830 26 92 0.0 1.6 0.00 0.00 0.00 42 1020.0
20260906182325 26 81 1.6 3.2 0.00 0.00 0.00 43 1020.1
20260906181820 26 112 3.2 3.2 0.00 0.00 0.00 45 1020.3
20260906181316 25 58 1.6 1.6 0.00 0.00 0.00 47 1020.3
20260906180812 26 29 9.7 9.7 0.00 0.00 0.00 47 1020.2
20260906180307 26 70 4.8 4.8 0.00 0.00 0.00 47 1020.3
20260906175803 26 118 0.0 0.0 0.00 0.00 0.00 48 1020.5
20260906175300 26 77 1.6 1.6 0.00 0.00 0.00 48 1020.6
20260906174758 26 102 4.8 8.0 0.00 0.00 0.00 46 1020.5
20260906174258 26 104 0.0 0.0 0.00 0.00 0.00 45 1020.9
20260906173753 26 106 1.6 3.2 0.00 0.00 0.00 45 1020.9
20260906173249 25 148 1.6 1.6 0.00 0.00 0.00 47 1021.1
20260906172748 24 70 1.6 3.2 0.00 0.00 0.00 49 1020.9
20260906172243 25 55 4.8 4.8 0.00 0.00 0.00 49 1021.3
20260906171738 25 62 4.8 8.0 0.00 0.00 0.00 50 1021.3
20260906171233 25 22 1.6 1.6 0.00 0.00 0.00 51 1021.3
20260906170729 25 77 1.6 1.6 0.00 0.00 0.00 53 1021.4
20260906170224 24 76 0.0 0.0 0.00 0.00 0.00 55 1021.9
20260906165720 24 75 1.6 3.2 0.00 0.00 0.00 56 1021.4
20260906165215 23 110 1.6 1.6 0.00 0.00 0.00 56 1021.8
20260906164714 23 67 4.8 4.8 0.00 0.00 0.00 56 1021.6
20260906164204 23 105 0.0 1.6 0.00 0.00 0.00 56 1021.8
20260906163700 23 110 3.2 3.2 0.00 0.00 0.00 56 1021.8
20260906163156 23 70 6.4 8.0 0.00 0.00 0.00 57 1021.5
20260906162653 23 108 0.0 1.6 0.00 0.00 0.00 55 1021.5
20260906162152 23 80 3.2 3.2 0.00 0.00 0.00 57 1021.6
20260906161647 22 73 3.2 3.2 0.00 0.00 0.00 60 1021.3
20260906161146 22 343 3.2 3.2 0.00 0.00 0.00 62 1021.5
20260906160645 22 9 3.2 3.2 0.00 0.00 0.00 60 1021.5
20260906160144 22 64 1.6 3.2 0.00 0.00 0.00 61 1021.4
20260906155642 22 331 3.2 4.8 0.00 0.00 0.00 59 1021.4
20260906155138 22 116 0.0 3.2 0.00 0.00 0.00 60 1021.3
20260906154633 21 82 1.6 3.2 0.00 0.00 0.00 62 1021.4
20260906154133 21 50 1.6 3.2 0.00 0.00 0.00 64 1021.3
20260906153631 21 81 3.2 4.8 0.00 0.00 0.00 67 1021.4
20260906153127 21 61 3.2 3.2 0.00 0.00 0.00 67 1021.9
20260906152621 20 60 3.2 3.2 0.00 0.00 0.00 69 1021.5
20260906152121 20 15 3.2 3.2 0.00 0.00 0.00 70 1021.6
20260906151615 20 45 4.8 4.8 0.00 0.00 0.00 71 1021.3
20260906151112 20 337 6.4 9.7 0.00 0.00 0.00 71 1021.4
20260906150607 20 84 1.6 1.6 0.00 0.00 0.00 72 1021.6
20260906145601 21 311 8.0 11.3 0.00 0.00 0.00 69 1021.3
20260906145055 20 88 8.0 9.7 0.00 0.00 0.00 72 1021.5
20260906144544 19 86 1.6 3.2 0.00 0.00 0.00 74 1021.6
20260906144040 18 59 3.2 3.2 0.00 0.00 0.00 77 1021.8
20260906143534 18 41 1.6 3.2 0.00 0.00 0.00 77 1021.6
20260906143032 18 325 4.8 4.8 0.00 0.00 0.00 77 1021.8
20260906142530 18 39 8.0 11.3 0.00 0.00 0.00 76 1021.6
20260906142026 18 279 3.2 3.2 0.00 0.00 0.00 78 1021.6
20260906141525 18 10 4.8 4.8 0.00 0.00 0.00 79 1021.5
20260906141021 18 58 3.2 3.2 0.00 0.00 0.00 79 1021.6
20260906140514 18 85 1.6 3.2 0.00 0.00 0.00 78 1021.4
20260906140014 18 318 4.8 4.8 0.00 0.00 0.00 79 1021.9
20260906135511 18 1 4.8 8.0 0.00 0.00 0.00 78 1021.5
20260906135007 17 277 3.2 9.7 0.00 0.00 0.00 79 1021.5
20260906134502 17 87 1.6 3.2 0.00 0.00 0.00 80 1021.3
20260906134002 16 60 1.6 1.6 0.00 0.00 0.00 80 1021.5
20260906133458 16 73 1.6 1.6 0.00 0.00 0.00 81 1021.4
20260906132954 16 24 3.2 3.2 0.00 0.00 0.00 81 1021.3
20260906132449 15 52 1.6 1.6 0.00 0.00 0.00 80 1021.3
20260906131944 15 57 1.6 1.6 0.00 0.00 0.00 80 1021.4
20260906131439 15 289 3.2 3.2 0.00 0.00 0.00 80 1021.5
20260906130935 15 10 3.2 3.2 0.00 0.00 0.00 80 1021.3
20260906130434 15 28 1.6 3.2 0.00 0.00 0.00 80 1021.2
20260906125928 15 54 1.6 1.6 0.00 0.00 0.00 80 1021.3
20260906125426 15 63 1.6 3.2 0.00 0.00 0.00 80 1021.2
20260906124925 15 30 1.6 3.2 0.00 0.00 0.00 80 1021.2
20260906124421 15 64 1.6 1.6 0.00 0.00 0.00 80 1021.3
20260906123916 15 65 0.0 0.0 0.00 0.00 0.00 80 1021.3
20260906123415 15 59 1.6 1.6 0.00 0.00 0.00 80 1020.9
20260906122915 15 65 0.0 0.0 0.00 0.00 0.00 81 1021.3
20260906122410 15 64 0.0 0.0 0.00 0.00 0.00 81 1021.2
20260906121907 15 85 0.0 0.0 0.00 0.00 0.00 81 1021.2
20260906121403 15 80 0.0 1.6 0.00 0.00 0.00 81 1021.3
20260906120859 15 86 0.0 0.0 0.00 0.00 0.00 82 1021.1
20260906120354 15 65 0.0 0.0 0.00 0.00 0.00 82 1021.2
20260906115851 15 80 0.0 1.6 0.00 0.00 0.00 82 1021.2
20260906115346 15 72 1.6 1.6 0.00 0.00 0.00 82 1021.2
20260906114845 15 61 1.6 1.6 0.00 0.00 0.00 82 1020.9
20260906114340 15 113 0.0 0.0 0.00 0.00 0.00 82 1020.9
20260906113835 15 113 0.0 0.0 0.00 0.00 0.00 82 1020.9
20260906113334 15 113 0.0 1.6 0.00 0.00 0.00 81 1020.8
20260906112830 16 113 0.0 0.0 0.00 0.00 0.00 81 1021.2
20260906112326 16 61 1.6 1.6 0.00 0.00 0.00 81 1021.3
20260906111825 16 43 1.6 3.2 0.00 0.00 0.00 82 1020.7
20260906111320 16 15 4.8 4.8 0.00 0.00 0.00 82 1020.9
20260906110815 16 58 1.6 1.6 0.00 0.00 0.00 82 1020.7
20260906110311 16 9 3.2 3.2 0.00 0.00 0.00 81 1020.6
20260906105809 16 51 1.6 3.2 0.00 0.00 0.00 81 1020.8
20260906105306 16 32 3.2 3.2 0.00 0.00 0.00 80 1020.9
20260906104800 16 68 1.6 1.6 0.00 0.00 0.00 79 1020.7
20260906104254 16 8 4.8 4.8 0.00 0.00 0.00 78 1020.7
20260906103752 16 28 4.8 4.8 0.00 0.00 0.00 76 1020.7
20260906103251 16 16 4.8 4.8 0.00 0.00 0.00 75 1020.7
20260906102747 16 326 4.8 4.8 0.00 0.00 0.00 74 1020.7
20260906102246 16 58 3.2 3.2 0.00 0.00 0.00 73 1020.7
20260906101741 16 38 3.2 3.2 0.00 0.00 0.00 73 1020.8
20260906101236 17 55 1.6 1.6 0.00 0.00 0.00 71 1020.7
20260906100732 17 13 3.2 4.8 0.00 0.00 0.00 70 1020.8
20260906100231 17 61 3.2 4.8 0.00 0.00 0.00 68 1020.6
20260906095727 17 343 4.8 8.0 0.00 0.00 0.00 65 1020.7
20260906095222 17 30 3.2 4.8 0.00 0.00 0.00 65 1020.6
20260906094720 17 57 6.4 8.0 0.00 0.00 0.00 65 1020.8
20260906094210 18 20 4.8 4.8 0.00 0.00 0.00 65 1020.7
20260906093707 18 78 3.2 3.2 0.00 0.00 0.00 64 1020.9
20260906093202 18 64 1.6 3.2 0.00 0.00 0.00 62 1020.7
20260906092657 18 5 3.2 4.8 0.00 0.00 0.00 62 1020.5
20260906092156 18 70 3.2 3.2 0.00 0.00 0.00 62 1020.5
20260906091653 18 78 0.0 0.0 0.00 0.00 0.00 61 1020.7
20260906091149 18 84 0.0 0.0 0.00 0.00 0.00 60 1020.6
20260906090645 18 72 1.6 1.6 0.00 0.00 0.00 59 1020.5
20260906090144 18 70 1.6 1.6 0.00 0.00 0.00 58 1020.3
20260906085642 18 35 3.2 3.2 0.00 0.00 0.00 57 1020.6
20260906085137 18 66 0.0 1.6 0.00 0.00 0.00 56 1020.0
20260906084632 18 47 4.8 4.8 0.00 0.00 0.00 57 1020.5
20260906084131 19 76 0.0 0.0 0.00 0.00 0.00 56 1020.3
20260906083626 20 94 0.0 0.0 0.00 0.00 0.00 54 1020.3
20260906083121 20 94 0.0 0.0 0.00 0.00 0.00 53 1020.3
20260906082617 20 57 3.2 4.8 0.00 0.00 0.00 52 1020.5
20260906082112 20 49 3.2 3.2 0.00 0.00 0.00 51 1020.5
20260906081608 20 49 4.8 4.8 0.00 0.00 0.00 51 1020.1
20260906081103 20 86 1.6 3.2 0.00 0.00 0.00 51 1020.0
20260906080600 20 77 1.6 3.2 0.00 0.00 0.00 50 1020.0
20260906080055 20 56 1.6 1.6 0.00 0.00 0.00 50 1020.2
20260906075555 21 57 3.2 3.2 0.00 0.00 0.00 49 1020.2
20260906075049 21 75 3.2 3.2 0.00 0.00 0.00 49 1020.1
20260906074545 21 74 3.2 4.8 0.00 0.00 0.00 49 1020.0
20260906074043 21 45 4.8 4.8 0.00 0.00 0.00 49 1019.9
20260906073538 21 91 4.8 8.0 0.00 0.00 0.00 51 1020.2
20260906073034 21 51 6.4 8.0 0.00 0.00 0.00 51 1020.0
20260906072529 21 356 4.8 8.0 0.00 0.00 0.00 49 1019.9
20260906072025 20 6 4.8 4.8 0.00 0.00 0.00 51 1020.1
20260906071521 20 42 3.2 3.2 0.00 0.00 0.00 56 1020.0
20260906071010 21 315 3.2 3.2 0.00 0.00 0.00 56 1020.0
20260906070507 22 153 1.6 1.6 0.00 0.00 0.00 52 1019.9
20260906070002 22 74 1.6 3.2 0.00 0.00 0.00 47 1020.2
20260906065502 22 3 4.8 4.8 0.00 0.00 0.00 46 1020.1
20260906064957 22 42 4.8 8.0 0.00 0.00 0.00 46 1020.3
20260906064454 21 44 4.8 4.8 0.00 0.00 0.00 49 1020.2
20260906063954 21 353 4.8 4.8 0.00 0.00 0.00 52 1020.3
20260906063449 20 1 4.8 4.8 0.00 0.00 0.00 55 1020.3
20260906062943 20 30 3.2 3.2 0.00 0.00 0.00 56 1020.5
20260906062438 21 68 1.6 1.6 0.00 0.00 0.00 55 1020.6
20260906061933 21 59 1.6 1.6 0.00 0.00 0.00 54 1020.6
20260906061429 21 144 1.6 1.6 0.00 0.00 0.00 54 1020.5
20260906060924 21 127 0.0 0.0 0.00 0.00 0.00 54 1020.7
20260906060421 21 137 0.0 0.0 0.00 0.00 0.00 53 1020.6
20260906055917 21 77 0.0 0.0 0.00 0.00 0.00 54 1020.8
20260906055413 21 97 0.0 0.0 0.00 0.00 0.00 54 1020.5
20260906054908 21 149 0.0 1.6 0.00 0.00 0.00 53 1020.6
20260906054403 22 97 1.6 1.6 0.00 0.00 0.00 50 1020.3
20260906053859 22 86 3.2 3.2 0.00 0.00 0.00 50 1020.2
20260906053354 22 20 6.4 8.0 0.00 0.00 0.00 49 1020.3
20260906052850 22 11 8.0 11.3 0.00 0.00 0.00 48 1020.5
20260906052346 22 75 1.6 1.6 0.00 0.00 0.00 48 1020.7
20260906051843 22 295 3.2 3.2 0.00 0.00 0.00 47 1020.7
20260906051343 22 43 4.8 4.8 0.00 0.00 0.00 48 1020.9
20260906050838 22 85 0.0 0.0 0.00 0.00 0.00 49 1021.3
20260906050333 22 103 1.6 1.6 0.00 0.00 0.00 48 1021.1
20260906045832 23 120 3.2 3.2 0.00 0.00 0.00 45 1021.3
20260906045326 22 127 0.0 1.6 0.00 0.00 0.00 44 1021.4
20260906044823 22 88 1.6 3.2 0.00 0.00 0.00 44 1021.3
20260906044323 22 125 3.2 3.2 0.00 0.00 0.00 45 1021.3
20260906043819 23 134 3.2 3.2 0.00 0.00 0.00 44 1021.1
20260906043315 23 78 0.0 0.0 0.00 0.00 0.00 43 1020.7
20260906042814 22 72 1.6 1.6 0.00 0.00 0.00 43 1020.3
20260906042314 22 92 0.0 1.6 0.00 0.00 0.00 45 1020.1
20260906041809 22 77 0.0 1.6 0.00 0.00 0.00 46 1020.5
20260906041304 23 72 1.6 1.6 0.00 0.00 0.00 44 1020.3
20260906040759 23 70 1.6 3.2 0.00 0.00 0.00 42 1020.2
20260906040254 23 73 3.2 3.2 0.00 0.00 0.00 41 1020.2
20260906035750 23 62 1.6 3.2 0.00 0.00 0.00 43 1019.9
20260906035245 23 58 1.6 1.6 0.00 0.00 0.00 42 1020.0
20260906034740 23 77 1.6 1.6 0.00 0.00 0.00 41 1019.9
20260906034235 23 78 0.0 0.0 0.00 0.00 0.00 41 1019.8
20260906033731 23 72 1.6 1.6 0.00 0.00 0.00 41 1019.8
20260906033230 23 38 3.2 4.8 0.00 0.00 0.00 41 1019.9
20260906032727 23 84 4.8 8.0 0.00 0.00 0.00 41 1019.8
20260906032226 22 73 0.0 0.0 0.00 0.00 0.00 42 1019.5
20260906031722 22 99 0.0 1.6 0.00 0.00 0.00 41 1019.8
20260906031218 22 83 0.0 0.0 0.00 0.00 0.00 42 1019.6
20260906030717 23 98 0.0 0.0 0.00 0.00 0.00 42 1019.2
20260906030212 23 72 0.0 1.6 0.00 0.00 0.00 40 1019.3
20260906025711 23 78 0.0 0.0 0.00 0.00 0.00 40 1019.2
20260906025207 23 76 1.6 1.6 0.00 0.00 0.00 38 1018.9
20260906024705 24 91 0.0 0.0 0.00 0.00 0.00 39 1018.6
20260906024204 25 57 0.0 1.6 0.00 0.00 0.00 39 1018.9
20260906023701 25 73 1.6 1.6 0.00 0.00 0.00 38 1018.9
20260906023200 26 74 1.6 1.6 0.00 0.00 0.00 36 1018.6
20260906022655 26 70 3.2 3.2 0.00 0.00 0.00 34 1018.7
20260906022151 26 82 3.2 3.2 0.00 0.00 0.00 33 1018.7
20260906021647 26 52 3.2 3.2 0.00 0.00 0.00 33 1018.5
20260906021145 26 343 4.8 8.0 0.00 0.00 0.00 33 1018.5
20260906020640 26 314 6.4 8.0 0.00 0.00 0.00 33 1018.7
20260906020136 26 295 4.8 8.0 0.00 0.00 0.00 33 1018.6
20260906015630 26 306 6.4 8.0 0.00 0.00 0.00 34 1018.6
20260906015129 26 309 8.0 8.0 0.00 0.00 0.00 34 1018.8
20260906014629 26 25 8.0 9.7 0.00 0.00 0.00 34 1018.3
20260906014125 26 340 8.0 8.0 0.00 0.00 0.00 33 1018.5
20260906013620 26 320 4.8 8.0 0.00 0.00 0.00 34 1018.3
20260906013116 26 48 4.8 8.0 0.00 0.00 0.00 34 1018.6
20260906012610 26 336 1.6 3.2 0.00 0.00 0.00 34 1018.2
20260906012105 27 340 3.2 3.2 0.00 0.00 0.00 34 1018.2
20260906011601 27 17 4.8 4.8 0.00 0.00 0.00 33 1018.2
20260906011101 27 330 4.8 8.0 0.00 0.00 0.00 33 1018.5
20260906010556 27 301 8.0 11.3 0.00 0.00 0.00 33 1018.5
20260906010052 27 0 8.0 9.7 0.00 0.00 0.00 33 1018.3
20260906005551 27 339 8.0 11.3 0.00 0.00 0.00 32 1018.3
20260906005051 27 16 4.8 8.0 0.00 0.00 0.00 32 1018.3
20260906004550 28 63 4.8 4.8 0.00 0.00 0.00 32 1018.5
20260906004045 28 47 4.8 4.8 0.00 0.00 0.00 31 1018.1
20260906003540 28 12 3.2 3.2 0.00 0.00 0.00 31 1018.3
20260906003036 28 40 4.8 4.8 0.00 0.00 0.00 31 1018.2
20260906002531 28 50 4.8 4.8 0.00 0.00 0.00 31 1018.5
20260906002026 29 52 4.8 4.8 0.00 0.00 0.00 30 1018.2
20260906001521 29 81 3.2 4.8 0.00 0.00 0.00 30 1018.2
20260906001015 30 16 8.0 11.3 0.00 0.00 0.00 29 1018.5
20260906000512 30 24 6.4 8.0 0.00 0.00 0.00 28 1018.1
20260906000007 30 68 4.8 4.8 0.00 0.00 0.00 29 1018.2
20260905235506 30 70 1.6 1.6 0.00 0.00 0.00 30 1018.1
20260905235001 30 76 1.6 1.6 0.00 0.00 0.00 29 1018.1
20260905234456 30 60 1.6 1.6 0.00 0.00 0.00 29 1018.2
20260905233950 31 56 1.6 3.2 0.00 0.00 0.00 27 1018.1
20260905233446 31 80 0.0 0.0 0.00 0.00 0.00 25 1018.2
20260905232944 31 77 1.6 1.6 0.00 0.00 0.00 27 1018.1
20260905232441 31 70 0.0 1.6 0.00 0.00 0.00 27 1018.1
20260905231936 31 91 1.6 1.6 0.00 0.00 0.00 26 1018.2
20260905231431 31 124 0.0 1.6 0.00 0.00 0.00 29 1017.9
20260905230923 31 115 1.6 1.6 0.00 0.00 0.00 27 1018.0
20260905230420 32 133 4.8 4.8 0.00 0.00 0.00 26 1018.0
20260905225919 33 103 0.0 0.0 0.00 0.00 0.00 23 1018.0
20260905225414 32 116 1.6 1.6 0.00 0.00 0.00 26 1018.1